UAL133 PKMJ-PHNL

Flight info

Callsign UAL133
Flight time N/A
Altitude 37000
Route MAJ R584 CHOKO OPACA4
Aircraft B38M/M-SDE1FGHILORVWXY/HB1

Departure

Time 2026-05-08 09:09
Airport Marshall Islands International Airport (PKMJ)

Arrival

Time N/A
Airport Daniel K. Inouye International Airport (PHNL)
Time Latitude Longitude Altitude Speed Heading
2026-05-08 09:05 7.06591 171.27577 2 ft 21 kts 256°
2026-05-08 09:05 7.06556 171.27435 4 ft 21 kts 256°
2026-05-08 09:06 7.06520 171.27289 4 ft 22 kts 256°
2026-05-08 09:06 7.06483 171.27136 5 ft 23 kts 256°
2026-05-08 09:06 7.06446 171.26980 5 ft 24 kts 256°
2026-05-08 09:06 7.06404 171.26808 1 ft 27 kts 256°
2026-05-08 09:07 7.06359 171.26626 1 ft 27 kts 256°
2026-05-08 09:07 7.06312 171.26435 -1 ft 29 kts 256°
2026-05-08 09:07 7.06275 171.26255 1 ft 22 kts 269°
2026-05-08 09:07 7.06270 171.26169 1 ft 5 kts 219°
2026-05-08 09:08 7.06253 171.26178 1 ft 2 kts 102°
2026-05-08 09:08 7.06254 171.26198 1 ft 3 kts 77°
2026-05-08 09:08 7.06255 171.26202 1 ft 0 kts 77°
2026-05-08 09:08 7.06259 171.26215 1 ft 8 kts 77°
2026-05-08 09:09 7.06322 171.26478 0 ft 78 kts 76°
2026-05-08 09:09 7.06511 171.27243 4 ft 147 kts 77°
2026-05-08 09:09 7.06789 171.28387 342 ft 178 kts 75°
2026-05-08 09:09 7.07102 171.29661 1117 ft 192 kts 76°
2026-05-08 09:10 7.07442 171.30966 2071 ft 194 kts 74°
2026-05-08 09:10 7.07939 171.32292 2679 ft 213 kts 64°
2026-05-08 09:10 7.08704 171.33634 3338 ft 226 kts 62°
2026-05-08 09:10 7.09483 171.35005 4125 ft 235 kts 62°
2026-05-08 09:11 7.10320 171.36493 4732 ft 252 kts 62°
2026-05-08 09:11 7.11194 171.38059 5488 ft 259 kts 62°
2026-05-08 09:11 7.12073 171.39646 6408 ft 261 kts 62°
2026-05-08 09:11 7.12965 171.41258 7205 ft 265 kts 62°
2026-05-08 09:12 7.13874 171.42905 7961 ft 273 kts 62°
2026-05-08 09:12 7.14798 171.44583 8832 ft 272 kts 63°
2026-05-08 09:12 7.15724 171.46263 9631 ft 278 kts 63°
2026-05-08 09:12 7.16674 171.47988 10249 ft 286 kts 62°
2026-05-08 09:13 7.17657 171.49774 10619 ft 304 kts 63°
2026-05-08 09:13 7.18700 171.51672 11048 ft 316 kts 62°
2026-05-08 09:13 7.19785 171.53643 11612 ft 323 kts 63°
2026-05-08 09:13 7.20878 171.55627 12351 ft 324 kts 63°
2026-05-08 09:14 7.21976 171.57623 13054 ft 326 kts 63°
2026-05-08 09:14 7.23087 171.59641 13624 ft 333 kts 63°
2026-05-08 09:14 7.24198 171.61658 14215 ft 334 kts 63°
2026-05-08 09:14 7.25329 171.63714 14763 ft 337 kts 63°
2026-05-08 09:15 7.26478 171.65802 15239 ft 342 kts 62°
2026-05-08 09:15 7.27635 171.67905 15817 ft 343 kts 63°
2026-05-08 09:15 7.28797 171.70018 16341 ft 347 kts 62°
2026-05-08 09:15 7.29978 171.72165 16768 ft 352 kts 63°
2026-05-08 09:16 7.31158 171.74311 17343 ft 352 kts 62°
2026-05-08 09:16 7.32341 171.76461 17746 ft 358 kts 62°
2026-05-08 09:16 7.33558 171.78676 18177 ft 362 kts 62°
2026-05-08 09:16 7.34779 171.80897 18641 ft 363 kts 62°
2026-05-08 09:17 7.36010 171.83136 18998 ft 367 kts 62°
2026-05-08 09:17 7.37249 171.85391 19466 ft 366 kts 63°
2026-05-08 09:17 7.38485 171.87640 19888 ft 368 kts 63°
2026-05-08 09:17 7.39736 171.89917 20217 ft 372 kts 63°
2026-05-08 09:18 7.40969 171.92163 20727 ft 370 kts 63°
2026-05-08 09:18 7.42226 171.94450 21041 ft 376 kts 62°
2026-05-08 09:18 7.43490 171.96754 21440 ft 376 kts 62°
2026-05-08 09:18 7.44760 171.99066 21865 ft 378 kts 62°
2026-05-08 09:19 7.46045 172.01406 22155 ft 383 kts 62°
2026-05-08 09:19 7.47332 172.03752 22663 ft 381 kts 62°
2026-05-08 09:19 7.48623 172.06103 22978 ft 386 kts 62°
2026-05-08 09:19 7.49910 172.08450 23345 ft 388 kts 62°
2026-05-08 09:20 7.51215 172.10828 23747 ft 388 kts 62°
2026-05-08 09:20 7.52531 172.13228 23955 ft 394 kts 62°
2026-05-08 09:20 7.53858 172.15645 24300 ft 395 kts 61°
2026-05-08 09:20 7.55193 172.18080 24446 ft 402 kts 61°
2026-05-08 09:21 7.56553 172.20563 24768 ft 402 kts 61°
2026-05-08 09:21 7.57908 172.23032 25088 ft 405 kts 61°
2026-05-08 09:22 7.66206 172.38179 26758 ft 419 kts 61°
2026-05-08 09:23 7.67614 172.40751 27078 ft 421 kts 61°
2026-05-08 09:23 7.69033 172.43344 27292 ft 425 kts 61°
2026-05-08 09:23 7.70466 172.45962 27603 ft 426 kts 61°
2026-05-08 09:23 7.71902 172.48585 27848 ft 429 kts 61°
2026-05-08 09:24 7.73330 172.51197 28111 ft 431 kts 61°
2026-05-08 09:24 7.74782 172.53850 28392 ft 433 kts 61°
2026-05-08 09:24 7.76243 172.56522 28641 ft 435 kts 62°
2026-05-08 09:24 7.77713 172.59209 28910 ft 437 kts 62°
2026-05-08 09:25 7.79182 172.61895 29141 ft 439 kts 62°
2026-05-08 09:25 7.80660 172.64601 29409 ft 441 kts 62°
2026-05-08 09:25 7.82128 172.67286 29654 ft 444 kts 62°
2026-05-08 09:25 7.83623 172.70022 29886 ft 446 kts 62°
2026-05-08 09:26 7.85122 172.72766 30102 ft 448 kts 62°
2026-05-08 09:26 7.86630 172.75527 30299 ft 449 kts 62°
2026-05-08 09:26 7.88143 172.78297 30505 ft 451 kts 61°
2026-05-08 09:26 7.89660 172.81075 30719 ft 453 kts 62°
2026-05-08 09:27 7.91176 172.83852 30917 ft 454 kts 61°
2026-05-08 09:27 7.92686 172.86618 31127 ft 456 kts 61°
2026-05-08 09:27 7.94218 172.89426 31319 ft 457 kts 61°
2026-05-08 09:27 7.95758 172.92248 31527 ft 459 kts 61°
2026-05-08 09:28 7.97300 172.95075 31707 ft 461 kts 61°
2026-05-08 09:28 7.98851 172.97920 31912 ft 462 kts 61°
2026-05-08 09:28 8.00402 173.00763 32099 ft 464 kts 61°
2026-05-08 09:28 8.01942 173.03589 32285 ft 465 kts 61°
2026-05-08 09:29 8.03505 173.06455 32480 ft 466 kts 61°
2026-05-08 09:29 8.05072 173.09332 32659 ft 468 kts 61°
2026-05-08 09:29 8.06644 173.12216 32846 ft 469 kts 61°
2026-05-08 09:29 8.08220 173.15111 33016 ft 471 kts 61°
2026-05-08 09:30 8.09801 173.18013 33218 ft 472 kts 60°
2026-05-08 09:30 8.11369 173.20891 33404 ft 473 kts 60°
2026-05-08 09:30 8.12949 173.23796 33683 ft 472 kts 60°
2026-05-08 09:30 8.14536 173.26711 33896 ft 472 kts 61°
2026-05-08 09:31 8.16112 173.29608 34142 ft 471 kts 60°
2026-05-08 09:31 8.17690 173.32507 34342 ft 471 kts 60°
2026-05-08 09:31 8.19269 173.35412 34569 ft 470 kts 60°
2026-05-08 09:31 8.20848 173.38313 34751 ft 471 kts 60°
2026-05-08 09:32 8.22402 173.41173 34965 ft 470 kts 60°
2026-05-08 09:32 8.23980 173.44074 35155 ft 470 kts 60°
2026-05-08 09:32 8.25550 173.46963 35376 ft 469 kts 60°
2026-05-08 09:32 8.27116 173.49846 35557 ft 469 kts 60°
2026-05-08 09:33 8.28684 173.52732 35756 ft 468 kts 60°
2026-05-08 09:33 8.30250 173.55616 35925 ft 469 kts 59°
2026-05-08 09:33 8.31804 173.58477 36026 ft 470 kts 59°
2026-05-08 09:33 8.33379 173.61378 36224 ft 470 kts 60°
2026-05-08 09:34 8.34953 173.64276 36379 ft 470 kts 60°
2026-05-08 09:34 8.36523 173.67171 36582 ft 469 kts 59°
2026-05-08 09:34 8.38090 173.70059 36720 ft 470 kts 60°
2026-05-08 09:34 8.39652 173.72939 36917 ft 468 kts 60°
2026-05-08 09:35 8.41208 173.75807 36950 ft 470 kts 59°
2026-05-08 09:35 8.44353 173.81609 36929 ft 470 kts 60°
2026-05-08 09:36 8.47499 173.87415 36928 ft 470 kts 60°
2026-05-08 09:36 8.50634 173.93205 36931 ft 470 kts 60°
2026-05-08 09:37 8.53757 173.98972 36931 ft 471 kts 60°
2026-05-08 09:37 8.56903 174.04784 36939 ft 471 kts 59°
2026-05-08 09:38 8.60046 174.10594 36941 ft 470 kts 60°
2026-05-08 09:38 8.63161 174.16356 36946 ft 471 kts 60°
2026-05-08 09:39 8.66310 174.22180 36952 ft 471 kts 60°
2026-05-08 09:39 8.69437 174.27968 36954 ft 472 kts 60°
2026-05-08 09:40 8.72602 174.33830 36934 ft 474 kts 59°
2026-05-08 09:40 8.75764 174.39688 36945 ft 475 kts 60°
2026-05-08 09:41 8.78909 174.45519 36939 ft 474 kts 60°
2026-05-08 09:41 8.82065 174.51372 36938 ft 474 kts 59°
2026-05-08 09:42 8.85199 174.57187 36929 ft 474 kts 60°
2026-05-08 09:42 8.88353 174.63041 36937 ft 474 kts 59°
2026-05-08 09:43 8.90971 174.67901 36952 ft 473 kts 59°
2026-05-08 09:43 8.94132 174.73774 36952 ft 474 kts 60°
2026-05-08 09:44 8.97290 174.79643 36960 ft 474 kts 59°
2026-05-08 09:44 9.00423 174.85468 36960 ft 474 kts 60°
2026-05-08 09:45 9.03581 174.91342 36954 ft 474 kts 60°
2026-05-08 09:45 9.06737 174.97216 36953 ft 475 kts 60°
2026-05-08 09:46 9.09875 175.03060 36945 ft 475 kts 60°
2026-05-08 09:46 9.13024 175.08926 36943 ft 474 kts 60°
2026-05-08 09:47 9.16172 175.14795 36939 ft 475 kts 61°
2026-05-08 09:47 9.19326 175.20675 36936 ft 475 kts 61°
2026-05-08 09:48 9.22455 175.26515 36944 ft 474 kts 60°
2026-05-08 09:48 9.25598 175.32380 36948 ft 474 kts 60°
2026-05-08 09:49 9.28731 175.38231 36953 ft 475 kts 61°
2026-05-08 09:49 9.31883 175.44119 36959 ft 474 kts 60°
2026-05-08 09:50 9.35024 175.49991 36967 ft 474 kts 60°
2026-05-08 09:50 9.38172 175.55877 36969 ft 475 kts 60°
2026-05-08 09:51 9.41301 175.61730 36960 ft 474 kts 60°
2026-05-08 09:51 9.44445 175.67617 36953 ft 475 kts 60°
2026-05-08 09:52 9.47572 175.73475 36960 ft 477 kts 60°
2026-05-08 09:52 9.50727 175.79386 36955 ft 476 kts 60°
2026-05-08 09:53 9.53877 175.85292 36953 ft 475 kts 60°
2026-05-08 09:53 9.57002 175.91153 36953 ft 475 kts 60°
2026-05-08 09:54 9.60138 175.97038 36954 ft 474 kts 59°
2026-05-08 09:54 9.63274 176.02927 36956 ft 474 kts 60°
2026-05-08 09:55 9.66408 176.08814 36961 ft 474 kts 60°
2026-05-08 09:55 9.69519 176.14660 36964 ft 474 kts 60°
2026-05-08 09:56 9.72650 176.20548 36967 ft 474 kts 59°
2026-05-08 09:56 9.75777 176.26431 36964 ft 473 kts 60°
2026-05-08 09:57 9.80442 176.35214 36960 ft 473 kts 59°
2026-05-08 09:57 9.83567 176.41100 36962 ft 475 kts 60°
2026-05-08 09:58 9.86704 176.47012 36963 ft 475 kts 60°
2026-05-08 09:58 9.89824 176.52896 36967 ft 475 kts 59°
2026-05-08 09:59 9.92961 176.58814 36966 ft 476 kts 60°
2026-05-08 09:59 9.96089 176.64717 36964 ft 476 kts 60°
2026-05-08 10:00 9.99201 176.70596 36964 ft 476 kts 60°
2026-05-08 10:00 10.02335 176.76519 36963 ft 476 kts 60°
2026-05-08 10:01 10.05468 176.82442 36960 ft 476 kts 60°
2026-05-08 10:01 10.08596 176.88360 36960 ft 476 kts 60°
2026-05-08 10:02 10.11709 176.94251 36965 ft 475 kts 59°
2026-05-08 10:02 10.14835 177.00170 36965 ft 475 kts 59°
2026-05-08 10:03 10.17953 177.06077 36966 ft 474 kts 60°
2026-05-08 10:03 10.21052 177.11954 36969 ft 474 kts 60°
2026-05-08 10:04 10.24175 177.17875 36973 ft 475 kts 60°
2026-05-08 10:04 10.27295 177.23796 36968 ft 475 kts 60°
2026-05-08 10:05 10.30388 177.29671 36970 ft 475 kts 60°
2026-05-08 10:05 10.33501 177.35585 36966 ft 476 kts 60°
2026-05-08 10:06 10.36630 177.41531 36962 ft 477 kts 60°
2026-05-08 10:06 10.39733 177.47434 36965 ft 476 kts 60°
2026-05-08 10:07 10.42850 177.53366 36966 ft 476 kts 60°
2026-05-08 10:07 10.45975 177.59314 36971 ft 476 kts 60°
2026-05-08 10:08 10.49101 177.65269 36976 ft 476 kts 60°
2026-05-08 10:08 10.52200 177.71177 36982 ft 476 kts 60°
2026-05-08 10:09 10.55325 177.77136 36983 ft 478 kts 60°
2026-05-08 10:09 10.58433 177.83068 36981 ft 477 kts 61°
2026-05-08 10:10 10.61544 177.89006 36974 ft 475 kts 61°
2026-05-08 10:10 10.64650 177.94940 36970 ft 475 kts 61°
2026-05-08 10:11 10.67731 178.00829 36965 ft 475 kts 61°
2026-05-08 10:11 10.70842 178.06781 36969 ft 475 kts 61°
2026-05-08 10:12 10.73926 178.12681 36977 ft 475 kts 61°
2026-05-08 10:12 10.77026 178.18617 36983 ft 475 kts 61°
2026-05-08 10:13 10.80137 178.24575 36989 ft 475 kts 61°
2026-05-08 10:13 10.83219 178.30484 36987 ft 475 kts 62°
2026-05-08 10:14 10.86319 178.36429 36982 ft 476 kts 61°
2026-05-08 10:14 10.89413 178.42366 36979 ft 476 kts 61°